TimeCDT,TemperatureF,Dew PointF,Humidity,Sea Level PressureIn,VisibilityMPH,Wind Direction,Wind SpeedMPH,Gust SpeedMPH,PrecipitationIn,Events,Conditions,WindDirDegrees,DateUTC
12:58 AM,79.5,58.3,48,29.82,10.0,WSW,8.1,-,N/A,,Clear,240,2013-07-23 05:58:00
1:55 AM,78.1,61.9,57,29.83,10.0,Variable,4.6,-,N/A,,Partly Cloudy,0,2013-07-23 06:55:00
1:58 AM,78.1,61.9,57,29.82,10.0,WSW,4.6,-,,,Partly Cloudy,250,2013-07-23 06:58:00
2:58 AM,75.9,65.8,71,29.81,10.0,SE,11.5,-,N/A,,Clear,130,2013-07-23 07:58:00
3:55 AM,75.9,66.4,72,29.82,10.0,SE,9.2,-,N/A,,Scattered Clouds,140,2013-07-23 08:55:00
4:55 AM,74.1,66.7,78,29.84,10.0,Calm,Calm,-,N/A,,Scattered Clouds,0,2013-07-23 09:55:00
5:55 AM,73.0,68.4,85,29.86,10.0,South,3.5,-,N/A,,Scattered Clouds,170,2013-07-23 10:55:00
6:55 AM,72.7,70.3,92,29.85,10.0,South,6.9,-,N/A,,Scattered Clouds,180,2013-07-23 11:55:00
7:58 AM,77.0,72.5,86,29.82,10.0,SSE,11.5,-,N/A,,Clear,160,2013-07-23 12:58:00
8:58 AM,78.1,73.0,84,29.90,10.0,North,5.8,-,N/A,,Scattered Clouds,350,2013-07-23 13:58:00
9:58 AM,81.7,73.0,75,29.90,10.0,NNE,11.5,19.6,N/A,,Clear,30,2013-07-23 14:58:00
10:58 AM,82.6,70.9,68,29.88,10.0,ENE,16.1,-,N/A,,Clear,70,2013-07-23 15:58:00
11:58 AM,85.6,71.1,62,29.88,10.0,East,11.5,-,N/A,,Clear,80,2013-07-23 16:58:00
12:58 PM,87.8,71.2,58,29.87,10.0,East,11.5,-,N/A,,Clear,100,2013-07-23 17:58:00
1:58 PM,90.1,71.1,53,29.86,10.0,ESE,11.5,-,N/A,,Partly Cloudy,120,2013-07-23 18:58:00
2:58 PM,91.0,75.4,60,29.86,10.0,ENE,12.7,-,N/A,,Clear,70,2013-07-23 19:58:00
3:58 PM,90.9,74.1,58,29.84,10.0,East,15.0,21.9,N/A,,Clear,80,2013-07-23 20:58:00
4:58 PM,91.8,72.0,52,29.81,10.0,East,16.1,-,N/A,,Clear,100,2013-07-23 21:58:00
5:58 PM,92.1,71.4,51,29.79,10.0,East,12.7,-,N/A,,Clear,90,2013-07-23 22:58:00
6:58 PM,91.8,71.1,51,29.78,10.0,East,9.2,-,N/A,,Clear,100,2013-07-23 23:58:00
7:58 PM,89.1,71.6,56,29.77,10.0,ESE,8.1,-,N/A,,Clear,110,2013-07-24 00:58:00
8:58 PM,87.3,71.6,60,29.79,10.0,East,8.1,-,N/A,Thunderstorm,Scattered Clouds,100,2013-07-24 01:58:00
9:04 PM,87.8,71.6,58,29.86,10.0,Variable,6.9,-,N/A,Rain-Thunderstorm,Light Thunderstorms and Rain,0,2013-07-24 02:04:00
9:11 PM,86.0,73.4,66,29.92,10.0,North,48.3,65.6,N/A,Rain-Thunderstorm,Light Thunderstorms and Rain,360,2013-07-24 02:11:00
9:13 PM,82.4,73.4,74,29.95,5.0,North,51.8,65.6,N/A,Rain-Thunderstorm,Light Thunderstorms and Rain,360,2013-07-24 02:13:00
9:14 PM,78.8,73.4,83,29.95,3.0,North,47.2,65.6,N/A,Rain-Thunderstorm,Heavy Thunderstorms and Rain,360,2013-07-24 02:14:00
9:15 PM,75.2,71.6,89,29.96,1.5,North,46.0,65.6,N/A,Rain-Thunderstorm,Heavy Thunderstorms and Rain,360,2013-07-24 02:15:00
9:18 PM,71.6,71.6,100,29.96,0.8,North,46.0,65.6,N/A,Rain-Thunderstorm,Heavy Thunderstorms and Rain,360,2013-07-24 02:18:00
9:23 PM,68.0,68.0,100,29.97,0.5,NNE,39.1,56.4,N/A,Fog-Rain-Thunderstorm,Heavy Thunderstorms and Rain,20,2013-07-24 02:23:00
9:27 PM,68.0,68.0,100,29.93,0.5,NNE,41.4,54.1,N/A,Fog-Rain-Thunderstorm,Heavy Thunderstorms and Rain,30,2013-07-24 02:27:00
9:28 PM,68.0,68.0,100,29.93,0.5,NE,38.0,54.1,N/A,Fog-Rain-Thunderstorm,Heavy Thunderstorms and Rain,40,2013-07-24 02:28:00
9:33 PM,68.0,68.0,100,29.89,0.5,East,19.6,50.6,N/A,Fog-Rain-Thunderstorm,Heavy Thunderstorms and Rain,80,2013-07-24 02:33:00
9:34 PM,68.0,68.0,100,29.88,0.5,East,12.7,50.6,N/A,Fog-Rain-Thunderstorm,Heavy Thunderstorms and Rain,90,2013-07-24 02:34:00
9:39 PM,68.0,68.0,100,29.88,0.5,SSE,17.3,50.6,N/A,Fog-Rain-Thunderstorm,Heavy Thunderstorms and Rain,160,2013-07-24 02:39:00
9:40 PM,68.0,68.0,100,29.88,0.8,SE,16.1,50.6,N/A,Rain-Thunderstorm,Heavy Thunderstorms and Rain,140,2013-07-24 02:40:00
9:41 PM,68.0,68.0,100,29.88,0.8,SE,11.5,50.6,N/A,Rain-Thunderstorm,Heavy Thunderstorms and Rain,140,2013-07-24 02:41:00
9:46 PM,68.0,68.0,100,29.88,2.0,East,18.4,25.3,N/A,Rain-Thunderstorm,Heavy Thunderstorms and Rain,80,2013-07-24 02:46:00
9:51 PM,68.0,68.0,100,29.88,2.0,East,18.4,24.2,N/A,Rain-Thunderstorm,Thunderstorms and Rain,90,2013-07-24 02:51:00
9:56 PM,68.0,68.0,100,29.87,2.5,East,19.6,24.2,N/A,Rain-Thunderstorm,Light Thunderstorms and Rain,100,2013-07-24 02:56:00
9:58 PM,68.0,68.0,100,29.83,3.0,East,18.4,-,N/A,Rain-Thunderstorm,Light Thunderstorms and Rain,90,2013-07-24 02:58:00
10:03 PM,68.0,68.0,100,29.86,6.0,East,20.7,26.5,N/A,Rain-Thunderstorm,Light Thunderstorms and Rain,80,2013-07-24 03:03:00
10:08 PM,68.0,68.0,100,29.85,10.0,East,19.6,26.5,N/A,Rain-Thunderstorm,Light Thunderstorms and Rain,90,2013-07-24 03:08:00
10:11 PM,68.0,68.0,100,29.84,10.0,East,15.0,26.5,N/A,Rain-Thunderstorm,Light Rain,90,2013-07-24 03:11:00
10:13 PM,68.0,68.0,100,29.85,10.0,East,12.7,26.5,N/A,Thunderstorm,Scattered Clouds,80,2013-07-24 03:13:00
10:29 PM,68.0,68.0,100,29.87,10.0,NNE,2.3,-,N/A,Rain,Light Rain,30,2013-07-24 03:29:00
10:58 PM,68.2,68.2,100,29.89,10.0,WNW,6.9,-,N/A,Rain-Thunderstorm,Light Rain,300,2013-07-24 03:58:00
10:59 PM,68.0,68.0,100,29.92,10.0,WNW,4.6,-,N/A,Rain-Thunderstorm,Light Rain,290,2013-07-24 03:59:00
11:00 PM,68.0,68.0,100,29.92,10.0,NW,2.3,-,N/A,Rain-Thunderstorm,Light Thunderstorms and Rain,320,2013-07-24 04:00:00
11:05 PM,68.0,68.0,100,29.93,7.0,NW,1.2,-,N/A,Rain-Thunderstorm,Light Thunderstorms and Rain,310,2013-07-24 04:05:00
11:10 PM,68.0,68.0,100,29.94,5.0,WSW,8.1,-,N/A,Rain-Thunderstorm,Light Thunderstorms and Rain,250,2013-07-24 04:10:00
11:15 PM,68.0,68.0,100,29.97,7.0,Variable,5.8,-,N/A,Rain-Thunderstorm,Light Rain,0,2013-07-24 04:15:00
11:20 PM,68.0,68.0,100,29.95,10.0,NNE,4.6,-,N/A,Rain-Thunderstorm,Light Rain,20,2013-07-24 04:20:00
11:25 PM,68.0,68.0,100,29.93,10.0,NE,5.8,-,N/A,Rain-Thunderstorm,Light Rain,50,2013-07-24 04:25:00
11:58 PM,68.9,68.9,100,29.95,10.0,SSW,9.2,-,N/A,Rain,Light Rain,210,2013-07-24 04:58:00